Date,TemperatureHighF,TemperatureAvgF,TemperatureLowF,DewpointHighF,DewpointAvgF,DewpointLowF,HumidityHigh,HumidityAvg,HumidityLow,PressureMaxIn,PressureMinIn,WindSpeedMaxMPH,WindSpeedAvgMPH,GustSpeedMaxMPH,PrecipitationSumIn
2013-2-1,43.0,40.5,36.7,39.9,36.3,31.8,93,85,76,29.79,29.34,13,7,23,0.02
2013-2-2,41.7,38.0,35.2,33.1,30.7,27.1,85,75,60,30.17,29.80,8,4,15,0.00
2013-2-3,49.3,45.3,36.7,45.7,40.5,31.8,90,83,76,30.01,29.43,19,12,30,0.00
2013-2-4,49.5,40.1,33.8,46.0,35.6,30.4,94,84,72,29.52,29.29,20,14,34,0.11
2013-2-5,43.9,39.1,33.4,39.0,34.4,30.2,94,83,76,29.54,29.03,17,11,36,0.01
2013-2-6,42.3,39.7,37.4,36.3,32.0,29.3,86,74,66,30.11,29.54,12,6,25,0.00
2013-2-7,41.4,38.2,35.1,36.0,32.5,29.3,87,80,70,30.11,29.99,7,3,12,0.00
2013-2-8,45.7,40.8,37.0,37.9,35.9,34.2,93,83,68,30.14,30.04,8,5,14,0.00
2013-2-9,41.9,39.2,37.0,39.4,36.6,34.7,95,90,83,30.11,29.82,4,2,7,0.00
2013-2-10,39.9,38.2,36.1,37.2,34.6,32.0,92,87,78,29.82,29.43,12,6,23,0.00
2013-2-11,41.4,38.5,36.7,35.8,32.1,28.0,91,78,68,29.96,29.51,10,6,19,0.01
2013-2-12,38.1,37.1,36.1,31.3,30.4,29.3,80,77,74,30.09,29.96,4,2,11,0.00
2013-2-13,44.4,36.5,32.4,40.8,32.2,26.3,91,85,70,30.09,29.51,15,6,33,0.46
2013-2-14,47.5,44.8,42.4,42.4,40.7,39.4,90,86,81,29.78,29.54,12,8,22,0.00
2013-2-15,49.4,44.2,39.3,41.6,39.5,36.4,91,84,72,30.10,29.78,10,6,20,0.00
2013-2-16,47.7,42.7,36.5,43.1,39.3,33.0,95,88,81,30.12,30.08,4,2,9,0.00
2013-2-17,50.1,42.4,30.7,42.1,38.2,28.9,96,85,69,30.12,30.06,5,1,9,0.00
2013-2-18,46.0,37.1,27.5,37.9,33.1,25.2,95,86,72,30.11,30.08,5,1,9,0.00
2013-2-19,43.0,39.3,30.7,39.6,36.7,26.7,98,91,76,30.15,30.10,5,1,9,0.00
2013-2-20,41.8,39.0,29.9,40.1,35.9,27.3,98,89,78,30.34,30.15,5,2,12,0.00
2013-2-21,38.5,36.4,33.7,30.4,28.8,25.9,83,74,68,30.34,30.30,5,2,12,0.00
2013-2-22,37.6,35.1,33.6,31.3,27.8,24.6,86,75,64,30.32,30.28,4,1,9,0.00
2013-2-23,40.6,36.8,32.4,35.6,30.0,26.1,93,77,67,30.39,30.25,6,2,13,0.01
2013-2-24,39.9,36.6,31.5,37.4,34.7,30.0,97,93,87,30.48,30.38,7,2,16,0.10
2013-2-25,43.3,36.9,30.6,40.1,35.2,29.3,99,93,87,30.64,30.48,5,2,10,0.01
2013-2-26,43.9,37.9,27.3,41.0,36.6,26.2,98,95,88,30.69,30.63,5,2,10,0.01
2013-2-27,48.4,35.6,27.9,39.9,33.5,27.0,99,92,72,30.69,30.58,6,2,10,0.01
2013-2-28,45.7,38.1,28.0,41.5,36.5,27.0,98,94,84,30.58,30.51,6,2,11,0.00